Regional Weather Roundup
Issued by NWS

Home | Current Version | Previous Version | Text Only | Print | Product List | Glossary Off
Versions: 1 2 3 4 5 6 7 8 9 10 11 12 13 14 15 16 17 18 19 20 21 22 23 24 25 26 27 28 29 30 31 32 33 34 35 36 37 38 39 40 41 42 43 44 45 46 47 48 49 50

000
ASUS43 KIND 292159
RWRIN

WEATHER ROUNDUP FOR INDIANA
NATIONAL WEATHER SERVICE INDIANAPOLIS IN
600 PM EDT FRI APR 29 2016

NOTE: "FAIR" INDICATES FEW OR NO CLOUDS BELOW 12,000 FEET WITH NO
SIGNIFICANT WEATHER AND/OR OBSTRUCTIONS TO VISIBILITY.

* - STATION DOES NOT REPORT WEATHER SUCH AS PRECIPITATION OR FOG.

+ - STATION NOT QUALITY CONTROLLED BY THE NATIONAL WEATHER SERVICE.
    USE DATA WITH CAUTION...ESPECIALLY DEWPOINT AND RELATIVE
    HUMIDITY OBSERVATIONS.

INZ001>003-010>013-019-020-292300-
NORTHWEST INDIANA

CITY           SKY/WX    TMP DP  RH WIND       PRES   REMARKS
GARY /AIRPORT/ CLOUDY    46  45  93 N7        30.12F
RENSSELAER +   CLOUDY    52  46  82 N5        30.10R

$$

LMZ046-743>745-292300-
SOUTHERN LAKE MICHIGAN

STATION/POSITION TIME  TEMP    WIND        PRES    WAVE
                       AIR SEA DIR/SP/G            HT
                 (UTC) (F)     (DEG/KT/KT) (MB)    (FT)
BURNS HARBOR     2120   42      10/ 12/ 14 1020.0F
MICHIGAN CITY    2100   42     300/  8/ 10   N/A

$$

INZ004-005-014>016-021>024-292300-
NORTH CENTRAL INDIANA

CITY           SKY/WX    TMP DP  RH WIND       PRES   REMARKS
ELKHART        CLOUDY    52  46  82 CALM      30.10R
GOSHEN         CLOUDY    52  44  74 E5        30.09S
SOUTH BEND     CLOUDY    47  44  90 NW10      30.11R

$$

INZ006>009-017-018-025>027-292300-
NORTHEAST INDIANA

CITY           SKY/WX    TMP DP  RH WIND       PRES   REMARKS
ANGOLA *+      CLOUDY    54  43  66 CALM      30.08S
FORT WAYNE     CLOUDY    54  45  71 CALM      30.09R

$$

INZ028-029-035-036-043>045-051>053-292300-
WEST CENTRAL INDIANA

CITY           SKY/WX    TMP DP  RH WIND       PRES   REMARKS
CRAWFORDSVL +  CLOUDY    58  49  70 N5        30.05S
GREENCASTLE +  CLOUDY    61  50  67 CALM      30.04S
LAFAYETTE      CLOUDY    57  47  69 NW6       30.06F
TERRE HAUTE    CLOUDY    66  49  54 E6        30.02F

$$

INZ030>032-037>040-046>048-054>057-064-065-292300-
CENTRAL INDIANA

CITY           SKY/WX    TMP DP  RH WIND       PRES   REMARKS
CP ATTERBURY + CLOUDY    63  48  59 N6        30.03F
COLUMBUS       SUNNY     64  48  55 N6        30.03F
INDIANAPOLIS   CLOUDY    63  46  54 NW5       30.02F
-EAGLE CREEK   PTSUNNY   63  47  55 NW6       30.03F
KOKOMO *+      CLOUDY    59  45  58 NW7       30.07R
SHELBYVILLE    PTSUNNY   65  48  54 N5        30.02F

$$

INZ033-034-041-042-049-050-058-059-292300-
EAST CENTRAL INDIANA

CITY           SKY/WX    TMP DP  RH WIND       PRES   REMARKS
MUNCIE         CLOUDY    62  48  60 N7        30.05S

$$

INZ060-061-067>069-081>083-085>088-292300-
SOUTHWEST INDIANA

CITY           SKY/WX    TMP DP  RH WIND       PRES   REMARKS
EVANSVILLE     CLOUDY    66  50  56 E3        30.01F
HUNTINGBURG *+ CLOUDY    66  52  59 CALM      30.02S

$$

INZ062-063-066-070>080-084-089>092-292300-
SOUTH CENTRAL AND SOUTHEAST INDIANA

CITY           SKY/WX    TMP DP  RH WIND       PRES   REMARKS
BLOOMINGTON    CLOUDY    66  49  54 N5        30.01F
MADISON *+     CLOUDY    64  46  52 CALM      30.05R
SEYMOUR +      CLOUDY    68  50  52 NE6       30.02S

$$





USA.gov is the U.S. government's official web portal to all federal, state and local government web resources and services.